Station HHLO1 - Huron Harbor Light, OH Image indicating link to RSS feed of recent meteorological observations for station HHLO1


Conditions at HHLO1 as of
(10:00 pm EDT on 05/26/2024)
0200 GMT on 05/27/2024:
     

Click on the graph icon in the table below to see a time series plot of the last five days of that observation.

5-day plot - Wind Direction Wind Direction (WDIR):WSW ( 240 deg true )
5-day plot - Wind Speed Wind Speed (WSPD):6.2 m/s
5-day plot - Wind Gust Wind Gust (GST):7.7 m/s
5-day plot - Atmospheric Pressure Atmospheric Pressure (PRES):1001.0 mb
5-day plot - Pressure Tendency Pressure Tendency (PTDY): +0.7 mb ( Rising )
5-day plot - Air Temperature Air Temperature (ATMP): 18.0 °C
5-day plot - Wind Speed at 10 Meters Wind Speed at 10 meters (WSPD10M): 6 m/s
5-day plot - Wind Speed at 20 Meters Wind Speed at 20 meters (WSPD20M): 6 m/s
5-day plot -  Wind Speed, Wind Gust and Atmospheric Pressure Combined plot of Wind Speed, Gust, and Air Pressure
Previous observations
TIME
(EDT)
5-day plot - Wind Direction
WDIR
 
5-day plot - Wind Speed
WSPD
m/s
5-day plot - Wind Gust
GST
m/s
5-day plot - Wave Height
WVHT
m
5-day plot - Dominant Wave Period
DPD
sec
5-day plot - Average Wave Period
APD
sec
5-day plot - Mean Wave Direction
MWD
 
5-day plot - Atmospheric Pressure
PRES
mb
5-day plot - Pressure Tendency
PTDY
mb
5-day plot - Air Temperature
ATMP
°C
5-day plot - Water Temperature
WTMP
°C
5-day plot - Dew Point
DEWP
°C
5-day plot - Salinity
SAL
psu
5-day plot - Visibility
VIS
km
5-day plot - Tide (above MLLW)
TIDE
m
2024-05-26 09:50 pm SW 5.1 6.7----1000.3- 18.0-----
2024-05-26 09:40 pm SW 5.7 6.7----1000.3- 18.0-----
2024-05-26 09:30 pm SW 4.1 5.7----1000.3- 18.2-----
2024-05-26 09:20 pmWSW 4.1 5.7----1000.0- 18.3-----
2024-05-26 09:10 pm W 4.1 6.2----1000.3- 18.2-----
2024-05-26 09:00 pm W 4.6 6.2----1000.0 -0.7 18.3-----
2024-05-26 08:50 pm NW 0.5 7.7----999.3- 18.5-----
2024-05-26 08:40 pm W 5.1 7.7----1000.0- 18.6-----
2024-05-26 08:30 pmSSW 3.1 5.1----999.7- 18.6-----
2024-05-26 08:20 pm S 3.1 6.2----999.7- 18.6-----
2024-05-26 08:10 pm S 3.1 6.2----1000.0- 18.6-----
2024-05-26 08:00 pm S 3.6 8.8----1000.3 -1.7 18.7-----
2024-05-26 07:50 pm S 5.1 10.8----1000.3- 18.8-----
2024-05-26 07:40 pm S 5.7 10.8----1000.3- 18.9-----
2024-05-26 07:30 pmSSW 7.2 12.9----1000.3- 19.2-----
2024-05-26 07:20 pmSSW 3.1 5.7----1000.3- 19.9-----
2024-05-26 07:10 pm S 4.6 14.4----1000.0- 19.9-----
2024-05-26 07:00 pm SE 11.8 16.5----1000.3 -3.4 20.5-----
2024-05-26 06:50 pm SE 11.3 14.9----999.3- 22.3-----
2024-05-26 06:40 pmESE 9.8 11.8----999.3- 23.4-----
2024-05-26 06:30 pm SE 9.3 10.8----999.3- 24.1-----
2024-05-26 06:20 pm SE 9.3 14.4----999.7- 25.6-----
2024-05-26 06:10 pmESE 11.3 12.9----1000.0- 26.1-----
2024-05-26 06:00 pm SE 8.2 11.8----1000.7 -4.0 26.4-----
2024-05-26 05:50 pm SE 8.8 10.8----1001.0- 26.3-----
2024-05-26 05:40 pm SE 8.2 12.4----1001.4- 26.5-----
2024-05-26 05:30 pm SE 5.1 9.3----1001.7- 26.4-----
2024-05-26 05:20 pm SE 8.2 10.8----1002.0- 26.4-----
2024-05-26 05:10 pm SE 6.7 11.3----1002.0- 26.6-----
2024-05-26 05:00 pm SE 7.2 10.3----1002.0 -4.4 26.5-----
2024-05-26 04:50 pm SE 7.7 10.3----1002.4- 26.7-----
2024-05-26 04:40 pm SE 6.7 9.8----1002.7- 26.9-----
2024-05-26 04:30 pm SE 6.7 9.8----1002.7- 27.2-----
2024-05-26 04:20 pm SE 6.7 9.3----1003.0- 27.2-----
2024-05-26 04:10 pm SE 6.2 11.3----1003.7- 27.4-----
2024-05-26 04:00 pm SE 7.2 10.3----1003.7 -3.8 27.3-----
2024-05-26 03:50 pm SE 9.3 10.8----1004.1- 27.3-----
2024-05-26 03:40 pm SE 8.8 11.3----1004.1- 26.8-----
2024-05-26 03:30 pm SE 8.2 9.3----1003.7- 27.2-----
2024-05-26 03:20 pm SE 7.2 8.8----1004.4- 27.3-----
2024-05-26 03:10 pm SE 6.2 7.7----1004.7- 27.3-----
2024-05-26 03:00 pm SE 6.2 9.3----1004.7 -4.1 27.0-----
2024-05-26 02:50 pmESE 6.2 9.3----1004.7- 27.1-----
2024-05-26 02:40 pm SE 7.2 9.3----1005.4- 26.8-----
2024-05-26 02:30 pm SE 6.2 8.8----1005.8- 26.6-----
2024-05-26 02:20 pmESE 4.6 7.2----1006.1- 25.5-----
2024-05-26 02:10 pm E 5.7 8.2----1006.1- 23.8-----
2024-05-26 02:00 pmENE 6.2 9.3----1006.4 -3.1 22.4-----
2024-05-26 01:50 pmENE 7.2 8.8----1006.8- 22.2-----
2024-05-26 01:40 pmENE 6.2 8.8----1007.1- 22.4-----
2024-05-26 01:30 pmENE 7.2 9.3----1007.1- 22.2-----
2024-05-26 01:20 pmENE 7.7 9.3----1007.5- 21.8-----
2024-05-26 01:10 pmENE 8.2 10.3----1007.5- 22.3-----
2024-05-26 01:00 pm NE 7.7 9.3----1007.5 -2.3 22.0-----
2024-05-26 12:50 pmENE 7.2 9.3----1007.8- 22.5-----
2024-05-26 12:40 pmENE 5.7 7.2----1008.1- 22.5-----
2024-05-26 12:30 pmENE 5.7 8.2----1008.5- 22.5-----
2024-05-26 12:20 pmENE 5.7 6.7----1008.5- 22.6-----
2024-05-26 12:10 pmENE 5.1 7.7----1008.5- 24.1-----
2024-05-26 12:00 pmESE 5.1 6.2----1008.8 -1.4 24.2-----
2024-05-26 11:50 am E 4.6 6.2----1008.8- 24.3-----
2024-05-26 11:40 amENE 3.6 6.2----1009.1- 22.6-----
2024-05-26 11:30 amENE 5.1 6.7----1009.1- 22.2-----
2024-05-26 11:20 amENE 5.7 6.2----1009.5- 22.4-----
2024-05-26 11:10 am NE 4.1 5.1----1009.1- 22.1-----
2024-05-26 11:00 amENE 4.6 5.1----1009.5 -0.7 22.6-----
2024-05-26 10:50 amENE 3.6 5.7----1009.5- 22.2-----
2024-05-26 10:40 am E 3.6 5.7----1009.5- 22.9-----
2024-05-26 10:30 am E 3.6 4.6----1009.5- 22.2-----
2024-05-26 10:20 am E 4.1 4.6----1009.8- 22.3-----
2024-05-26 10:10 am E 4.1 4.6----1009.8- 21.8-----
2024-05-26 10:00 am E 4.1 4.6----1009.8 -0.4 21.7-----
2024-05-26 09:50 am E 4.6 5.1----1009.8- 21.6-----
2024-05-26 09:40 am E 4.1 4.6----1010.2- 21.2-----
2024-05-26 09:30 am E 3.6 4.6----1010.2- 20.8-----
2024-05-26 09:20 am E 4.1 4.6----1010.2- 20.6-----
2024-05-26 09:10 am E 3.1 3.6----1010.2- 20.8-----
2024-05-26 09:00 am E 3.1 3.6----1010.2 -0.3 20.3-----
2024-05-26 08:50 am E 3.1 3.6----1010.2- 20.0-----
2024-05-26 08:40 am E 3.1 3.6----1010.2- 19.7-----
2024-05-26 08:30 am E 3.1 4.1----1010.2- 19.5-----
2024-05-26 08:20 am E 3.6 3.6----1010.2- 19.2-----
2024-05-26 08:10 am E 3.1 3.6----1010.2- 19.1-----
2024-05-26 08:00 am E 3.1 3.6----1010.2 +0.0 18.7-----
2024-05-26 07:50 am E 3.6 4.1----1009.8- 18.6-----
2024-05-26 07:40 am E 3.6 4.1----1009.8- 18.7-----
2024-05-26 07:30 amESE 3.6 4.1----1010.2- 18.6-----
2024-05-26 07:20 amESE 4.1 4.6----1010.2- 18.4-----
2024-05-26 07:10 amESE 3.6 5.1----1010.2- 18.3-----
2024-05-26 07:00 amESE 4.1 4.6----1010.2 -0.6 18.0-----
2024-05-26 06:50 am SE 2.6 3.1----1010.2- 17.2-----
2024-05-26 06:40 amSSE 0.5 1.0----1010.2- 17.1-----
2024-05-26 06:30 am S 1.0 2.1----1010.5- 17.1-----
2024-05-26 06:20 am S 2.1 2.1----1010.5- 16.5-----
2024-05-26 06:10 am- 0.0 1.0----1010.5- 16.4-----
2024-05-26 06:00 am S 1.0 1.0----1010.5 -0.3 16.2-----
2024-05-26 05:50 am S 0.5 0.5----1010.5- 16.2-----
2024-05-26 05:40 am- 0.0 0.5----1010.5- 16.1-----
2024-05-26 05:30 am- 0.0 1.0----1010.2- 16.0-----
2024-05-26 05:20 am S 0.5 1.0----1010.2- 16.2-----
2024-05-26 05:10 am- 0.0 2.1----1010.2- 16.7-----
2024-05-26 05:00 am SE 2.1 2.1----1010.2 -0.3 16.8-----
2024-05-26 04:50 am SW 0.5 1.5----1010.2- 16.6-----
2024-05-26 04:40 am SW 1.5 2.1----1010.8- 16.6-----
2024-05-26 04:30 amWSW 1.5 2.1----1010.5- 16.9-----
2024-05-26 04:20 am- 0.0 0.5----1010.5- 17.1-----
2024-05-26 04:10 am- 0.0 1.5----1010.5- 16.8-----
2024-05-26 04:00 am SW 1.0 1.0----1010.8 +0.3 17.0-----
2024-05-26 03:50 am- 0.0 1.5----1010.8- 17.1-----
2024-05-26 03:40 am SW 1.5 1.5----1010.8- 16.8-----
2024-05-26 03:30 amWSW 1.5 2.6----1010.8- 16.7-----
2024-05-26 03:20 am SW 2.1 2.1----1010.8- 16.7-----
2024-05-26 03:10 am SW 2.1 2.1----1010.8- 16.8-----
2024-05-26 03:00 am W 1.0 1.5----1010.8 +0.3 17.1-----
2024-05-26 02:50 am W 1.5 2.6----1010.8- 17.0-----
2024-05-26 02:40 amWSW 1.5 1.5----1010.5- 17.4-----
2024-05-26 02:30 am SW 1.0 2.1----1010.5- 17.3-----
2024-05-26 02:20 am SW 2.1 2.6----1010.5- 17.2-----
2024-05-26 02:10 am SW 1.5 2.1----1010.5- 17.4-----
2024-05-26 02:00 am SW 1.5 1.5----1010.5 +0.0 17.5-----
2024-05-26 01:50 am SW 1.5 1.5----1010.2- 17.6-----
2024-05-26 01:40 am SW 1.0 2.1----1010.5- 17.7-----
2024-05-26 01:30 am SW 1.5 2.1----1010.5- 17.7-----
2024-05-26 01:20 am SW 1.5 2.1----1010.5- 17.8-----
2024-05-26 01:10 am SW 1.5 1.5----1010.8- 17.8-----
2024-05-26 01:00 am SW 1.0 1.5----1010.5 +0.7 18.2-----
2024-05-26 12:50 am SW 1.5 1.5----1010.5- 18.7-----
2024-05-26 12:40 am- 0.0 0.5----1010.5- 19.1-----
2024-05-26 12:30 am- 0.0 1.0----1010.5- 19.1-----
2024-05-26 12:20 am W 0.5 1.0----1010.5- 19.0-----
2024-05-26 12:10 am W 0.5 1.0----1010.2- 19.3-----
2024-05-26 12:00 am- 0.0 0.5----1010.5 +1.4 19.5-----
2024-05-25 11:50 pm- 0.0 0.5----1010.5- 19.3-----
2024-05-25 11:40 pm- 0.0 0.5----1010.5- 19.6-----
2024-05-25 11:30 pm- 0.0 0.0----1010.5- 20.0-----
2024-05-25 11:20 pm- 0.0 0.5----1010.5- 20.3-----
2024-05-25 11:10 pm- 0.0 1.0----1010.5- 20.5-----
2024-05-25 11:00 pmWNW 0.5 1.5----1010.5 +2.0 21.0-----
2024-05-25 10:50 pmWNW 1.0 1.5----1010.5- 21.2-----
2024-05-25 10:40 pmWNW 1.0 1.5----1010.2- 21.3-----
2024-05-25 10:30 pmWNW 1.0 1.5----1010.2- 21.0-----
2024-05-25 10:20 pm- 0.0 0.0----1009.8- 21.7-----
2024-05-25 10:10 pmWSW 0.5 1.5----1009.8- 22.0-----
2024-05-25 10:00 pm- 0.0 0.5----1009.8 +1.7 21.8-----
2024-05-25 09:50 pm- 0.0 0.5----1009.5- 21.4-----